Weather History for KCZZ - November, 2014

Change the Weather History Date:

Friday, November 28, 2014

  Actual Average Record
Temperature  
Mean Temperature 60 °F 50 °F  
Max Temperature 81 °F 66 °F 83 °F (1999)
Min Temperature 38 °F 34 °F 21 °F (1952)
Degree Days  
Heating Degree Days 5 15  
Month to date heating degree days 265 329  
Since 1 July heating degree days 353 539  
Cooling Degree Days 0 0  
Month to date cooling degree days 0 0  
Year to date cooling degree days 900 839  
Growing Degree Days 10 (Base 50)    
Moisture  
Dew Point 16 °F    
Average Humidity 22    
Maximum Humidity 36    
Minimum Humidity 7    
Precipitation  
Precipitation 0.00 in 0.05 in 1.55 in (1975)
Month to date precipitation 0.26 1.02  
Year to date precipitation 5.05 13.35  
Since 1 July precipitation 2.29 3.20  
Snow  
Snow 0.00 in - - ()
Month to date snowfall 0.0  
Year to date snowfall 0.0  
Since 1 July snowfall 0.0  
Snow Depth 0.00 in    
Sea Level Pressure  
Sea Level Pressure 29.94 in    
Wind  
Wind Speed 7 mph (NE)    
Max Wind Speed 18 mph    
Max Gust Speed 23 mph    
T = Trace of Precipitation, MM = Missing Value Source: NWS Daily Summary

Daily Weather History Graph

Daily Weather History Graph

Search for Another Location

Airport or City:

Trip Planner

Search our weather history database for the weather conditions in past years. The results will help you decide how hot, cold, wet, or windy it might be!

Date:

Astronomy

Nov. 28, 2014 Rise Set
Actual Time 6:27 AM PST 4:40 PM PST
Civil Twilight 6:00 AM PST 5:06 PM PST
Nautical Twilight 5:30 AM PST 5:37 PM PST
Astronomical Twilight 5:00 AM PST 6:06 PM PST
Moon 11:35 AM PST (11/28) 11:20 PM PST (11/28)
Length of Visible Light 11h 06m
Length of Day
10h 12m
Waxing Crescent, 43% of the Moon is Illuminated
Nov 28
Waxing Crescent
Nov 29
First Quarter
Dec 6
Full
Dec 14
Last Quarter
Dec 21
New

Hourly Weather History & Observations

Time (PST) Temp. Windchill Dew Point Humidity Pressure Visibility Wind Dir Wind Speed Gust Speed Precip Events Conditions
12:52 AM 46.9 °F - 17.1 °F 30% 29.99 in - NE 4.6 mph - N/A   Unknown
1:52 AM 43.0 °F 38.8 °F 17.1 °F 35% 29.99 in - NE 6.9 mph - N/A   Unknown
2:52 AM 41.0 °F 37.1 °F 16.0 °F 36% 30.00 in - NE 5.8 mph - N/A   Unknown
3:52 AM 43.0 °F 38.2 °F 15.1 °F 32% 29.99 in - NE 8.1 mph - N/A   Unknown
4:52 AM 42.1 °F 37.1 °F 15.1 °F 34% 29.99 in - NE 8.1 mph - N/A   Unknown
5:52 AM 44.1 °F 40.1 °F 14.0 °F 30% 30.00 in - NE 6.9 mph - N/A   Unknown
6:52 AM 43.0 °F 38.8 °F 15.1 °F 32% 30.01 in - NE 6.9 mph - N/A   Unknown
7:52 AM 54.0 °F - 17.1 °F 23% 30.00 in - NE 5.8 mph - N/A   Unknown
8:52 AM 66.0 °F - 17.1 °F 15% 29.99 in - Calm Calm - N/A   Unknown
9:52 AM 75.0 °F - 17.1 °F 11% 29.96 in - Calm Calm - N/A   Unknown
11:52 AM 80.1 °F - 10.9 °F 7% 29.91 in - SSW 13.8 mph - N/A   Unknown
12:52 PM 80.1 °F - 14.0 °F 8% 29.88 in - SW 12.7 mph - N/A   Unknown
1:52 PM 80.1 °F - 15.1 °F 9% 29.86 in - SSW 15.0 mph - N/A   Unknown
2:52 PM 79.0 °F - 12.9 °F 8% 29.87 in - WSW 10.4 mph - N/A   Unknown
3:52 PM 75.0 °F - 19.9 °F 13% 29.87 in - SW 12.7 mph - N/A   Unknown
4:52 PM 68.0 °F - 21.0 °F 17% 29.88 in - Calm Calm - N/A   Unknown
5:52 PM 57.9 °F - 19.0 °F 22% 29.91 in - North 4.6 mph - N/A   Unknown
6:52 PM 52.0 °F - 18.0 °F 26% 29.92 in - NE 8.1 mph - N/A   Unknown
7:52 PM 48.0 °F - 18.0 °F 30% 29.93 in - ENE 9.2 mph - N/A   Unknown
8:52 PM 46.0 °F 42.5 °F 17.1 °F 31% 29.92 in - NE 6.9 mph - N/A   Unknown
9:52 PM 43.0 °F 37.7 °F 17.1 °F 35% 29.90 in - ENE 9.2 mph - N/A   Unknown
10:52 PM 43.0 °F 38.8 °F 16.0 °F 34% 29.88 in - NE 6.9 mph - N/A   Unknown
11:52 PM 39.0 °F 33.4 °F 15.1 °F 38% 29.88 in - ENE 8.1 mph - N/A   Unknown